Weather Roundup
Issued by NWS Springfield, MO

Home | Current Version | Previous Version | Text Only | Print | Product List | Glossary On
Versions: 1 2 3 4 5 6 7 8 9 10 11 12 13 14 15 16 17 18 19 20 21 22 23 24 25 26 27 28 29 30 31 32 33 34 35 36 37 38 39 40 41 42 43 44 45 46 47 48 49 50
000
NZUS99 KSGF 042059
HRRSGF

HOURLY WEATHER
NATIONAL WEATHER SERVICE SPRINGFIELD MO
400 PM CDT MON MAY 04 2015

......SGF CWA......

CITY           SKY/WX    TMP DP  RH WIND       PRES   REMARKS
SPRINGFIELD    MOSUNNY   81  59  47 SW10      30.08F
JOPLIN         MOSUNNY   81  62  52 S14       30.07F
WEST PLAINS    PTSUNNY   79  52  38 S12       30.14F
ROLLA          PTSUNNY   80  57  45 S12       30.08F
OSAGE BEACH    MOSUNNY  N/A N/A N/A SW14      30.07F
BRANSON        PTSUNNY   73  55  53 S9        30.12F

......SURROUNDING SGF CWA......

CITY           SKY/WX    TMP DP  RH WIND       PRES   REMARKS
CHANUTE        PTSUNNY   81  62  52 S18G24    30.03F
PARSONS        PTSUNNY   83  63  50 S14G23    30.04F
COFFEYVILLE    MOSUNNY   83  62  49 S17G26    30.03F
EMPORIA        PTSUNNY   82  60  47 S21G26    29.98F
SILOAM SPRINGS PTSUNNY   79  59  50 S8        30.11F
HARRISON AR    MOSUNNY   79  56  45 S9G18     30.13F
NEAR YELLVILLE MOSUNNY   82  54  36 SE6       30.10F

......KANSAS AND MISSOURI......

CITY           SKY/WX    TMP DP  RH WIND       PRES   REMARKS
KANSAS CTY INT MOSUNNY   82  59  45 SE13      29.99F
DOWNTOWN KC    MOSUNNY   84  60  44 S12       29.98F
COLUMBIA       PTSUNNY   81  60  48 SW14      30.06F
SEDALIA        PTSUNNY   83  62  49 S12       30.06F
ST JOSEPH      PTSUNNY   81  61  50 SE12      29.99F
ST LOUIS       CLOUDY    85  58  39 SW8       30.07F
SPIRIT OF STL  CLOUDY    82  56  40 SW10      30.06F
KIRKSVILLE     CLOUDY    77  64  64 S12       30.06F
WICHITA        PTSUNNY   82  61  48 S21G28    29.98F
TOPEKA         PTSUNNY   84  58  40 S15G24    29.96F
OLATHE         MOSUNNY   83  61  47 S13       29.99F

......TENNESSEE......

CITY           SKY/WX    TMP DP  RH WIND       PRES   REMARKS
MEMPHIS        MOSUNNY   83  49  30 CALM      30.16F
NASHVILLE      PTSUNNY   83  52  34 S8        30.19F

......ARKANSAS.......

CITY           SKY/WX    TMP DP  RH WIND       PRES   REMARKS
FAYETTEVILLE   PTSUNNY   76  62  62 SE13G25   30.11F
FT SMITH       PTSUNNY   82  51  34 S12       30.08F
LITTLE ROCK    PTSUNNY   81  57  43 S7        30.13F

......OKLAHOMA.......

CITY           SKY/WX    TMP DP  RH WIND       PRES   REMARKS
TULSA          PTSUNNY   83  59  44 S20G25    30.02F
PONCA CITY     PTSUNNY   84  63  49 S15G24    29.99F
MCALESTER      SUNNY     82  56  40 S6G18     30.07F
OKLAHOMA CITY  PTSUNNY   81  61  50 SE17G24   30.02F

......IOWA............

CITY           SKY/WX    TMP DP  RH WIND       PRES   REMARKS
DES MOINES     LGT RAIN  69  61  75 NE12      30.05F
QUAD CITIES    MOSUNNY   76  61  59 E14       30.07F

......ILLINOIS........

CITY           SKY/WX    TMP DP  RH WIND       PRES   REMARKS
QUINCY         PTSUNNY   80  60  50 SW14      30.05S
CHICAGO        CLOUDY    70  56  61 E13       30.12S




USA.gov is the U.S. government's official web portal to all federal, state and local government web resources and services.